This is the latest recevied weather packets stored in our database for station/object W6SNO-1. If no packets are shown the sender has not sent any weather packets the latest 10 day(s).
| Time | Temp. | Humidity | Pressure | Rain* | Wind** | Luminosity | Snow |
|---|---|---|---|---|---|---|---|
| 1777610027 | 13.33° C | 85% | 1014.8 hPa | 0 mm | - | 0 W/m² | - |
| 1777609723 | 13.33° C | 85% | 1014.9 hPa | 0 mm | - | 0 W/m² | - |
| 1777609421 | 13.33° C | 85% | 1014.6 hPa | 0 mm | - | 0 W/m² | - |
| 1777609118 | 13.89° C | 84% | 1014.8 hPa | 0 mm | - | 0 W/m² | - |
| 1777608815 | 13.89° C | 84% | 1014.7 hPa | 0 mm | - | 0 W/m² | - |
| 1777608512 | 13.89° C | 83% | 1014.7 hPa | 0 mm | - | 0 W/m² | - |
| 1777608210 | 13.89° C | 82% | 1014.6 hPa | 0 mm | - | 0 W/m² | - |
| 1777607907 | 13.89° C | 82% | 1014.6 hPa | 0 mm | - | 0 W/m² | - |
| 1777606691 | 15° C | 80% | 1014.3 hPa | 0 mm | - | 0 W/m² | - |
| 1777606387 | 15° C | 80% | 1014.3 hPa | 0 mm | - | 0 W/m² | - |
| 1777606081 | 15° C | 80% | 1014.2 hPa | 0 mm | - | 0 W/m² | - |
| 1777605778 | 15° C | 78% | 1014 hPa | 0 mm | - | 0 W/m² | - |
| 1777605476 | 15° C | 78% | 1014.4 hPa | 0 mm | - | 0 W/m² | - |
| 1777605174 | 15.56° C | 77% | 1014.1 hPa | 0 mm | - | 0 W/m² | - |
| 1777604869 | 15.56° C | 77% | 1014 hPa | 0 mm | - | 1 W/m² | - |
| 1777604565 | 15.56° C | 76% | 1013.9 hPa | 0 mm | - | 1 W/m² | - |
| 1777604261 | 16.11° C | 75% | 1013.9 hPa | 0 mm | - | 4 W/m² | - |
| 1777603957 | 16.11° C | 74% | 1013.8 hPa | 0 mm | - | 7 W/m² | - |
| 1777603654 | 16.11° C | 74% | 1013.8 hPa | 0 mm | - | 7 W/m² | - |
| 1777603350 | 16.67° C | 73% | 1013.6 hPa | 0 mm | - | 11 W/m² | - |
| 1777603046 | 17.22° C | 72% | 1013.9 hPa | 0 mm | - | 14 W/m² | - |
| 1777602741 | 17.22° C | 71% | 1013.6 hPa | 0 mm | - | 17 W/m² | - |
| 1777602436 | 17.22° C | 71% | 1013.6 hPa | 0 mm | - | 19 W/m² | - |
| 1777602133 | 17.22° C | 70% | 1013.6 hPa | 0 mm | - | 22 W/m² | - |
| 1777601828 | 17.78° C | 69% | 1013.6 hPa | 0 mm | - | 25 W/m² | - |
* Rain latest hour (hover to see other rain measurements)
** Current wind speed in m/s (hover to see current wind gust speed)